Printer-friendly version

IAU Minor Planet Center

Minor Planet Center

MPEC 2007-D14 : 2007 DC

The following Minor Planet Electronic Circular may be linked-to from your own Web pages, but must not otherwise be redistributed electronically.


Read MPEC 2007-D13 Read MPEC 2007-D15


M.P.E.C. 2007-D14                                Issued 2007 Feb. 17, 13:56 UT

     The Minor Planet Electronic Circulars contain information on unusual
         minor planets and routine data on comets.  They are published
   on behalf of Commission 20 of the International Astronomical Union by the
          Minor Planet Center, Smithsonian Astrophysical Observatory,
                          Cambridge, MA 02138, U.S.A.

             Prepared using the Tamkin Foundation Computer Network

                              MPC@CFA.HARVARD.EDU
          URL http://cfa-www.harvard.edu/iau/mpc.html  ISSN 1523-6714

                                    2007 DC

Observations:
     K07D00C* C2007 02 16.35225 10 49 35.90 +01 02 25.3          21.3 V ED014G96
     K07D00C  C2007 02 16.35675 10 49 36.01 +01 02 38.5          21.2 V ED014G96
     K07D00C  C2007 02 16.36133 10 49 36.12 +01 02 51.3          22.3 V ED014G96
     K07D00C  C2007 02 16.36587 10 49 36.22 +01 03 04.4          21.0 V ED014G96
     K07D00C  C2007 02 16.38880 10 49 36.68 +01 04 08.2          20.6 V ED014G96
     K07D00C  C2007 02 16.39943 10 49 37.09 +01 04 38.8          21.7 V ED014G96
     K07D00C  C2007 02 17.36428 10 51 20.43 +01 45 18.0          20.7 V ED014G96
     K07D00C  C2007 02 17.36976 10 51 20.45 +01 45 30.9          20.6 V ED014G96
     K07D00C  C2007 02 17.37518 10 51 20.50 +01 45 43.1          20.7 V ED014G96
     K07D00C  C2007 02 17.38052 10 51 20.54 +01 45 55.0          20.7 V ED014G96
     K07D00C  C2007 02 17.41807 10 51 20.93 +01 47 19.7          21.0 V ED014G96
     K07D00C  C2007 02 17.41895 10 51 20.93 +01 47 21.9          20.8 V ED014G96
     K07D00C  C2007 02 17.41985 10 51 20.89 +01 47 23.2          21.2 V ED014G96
     K07D00C  C2007 02 17.42073 10 51 20.89 +01 47 25.6          21.3 V ED014G96

Observer details:
G96 Mt. Lemmon Survey.  Observer E. J. Christensen.  Measurers E. C. Beshore,
    E. J. Christensen, G. J. Garradd, A. R. Gibbs, A. D. Grauer, R. E. Hill,
    R. A. Kowalski, S. M. Larson, R. H. McNaught.  1.5-m reflector + CCD.

Orbital elements:
2007 DC                                                  Earth MOID = 0.0042 AU
Epoch 2007 Apr. 10.0 TT = JDT 2454200.5                 MPC
M  61.18654              (2000.0)            P               Q
n   0.62418874     Peri.  278.14176     -0.05161278     -0.99866696
a   1.3559971      Node   174.81661     +0.91906893     -0.04775363
e   0.3267440      Incl.    0.41223     +0.39070246     -0.01959316
P   1.58           H   27.5           G   0.15           U   9
Residuals in seconds of arc
070216 G96  0.1-  0.2-    070216 G96  1.1+  0.3+    070217 G96  0.5+  0.1+
070216 G96  0.0   0.2+    070217 G96  0.1+  0.3-    070217 G96  0.3+  0.3+
070216 G96  0.1+  0.0     070217 G96  0.1-  0.2+    070217 G96  0.5-  0.4-
070216 G96  0.1+  0.3+    070217 G96  0.1+  0.1+    070217 G96  0.6-  0.1+
070216 G96  1.1-  0.5-    070217 G96  0.1+  0.1-

Ephemeris:
2007 DC                  a,e,i = 1.36, 0.33, 0                   q = 0.9129
Date    TT    R. A. (2000) Decl.     Delta      r     Elong.  Phase     V
2007 02 09    08 43.25   -35 50.6    0.00519  0.990   128.1    51.6    18.0
2007 02 10    09 52.86   -18 19.7    0.00815  0.994   146.7    33.0    18.4
2007 02 11    10 17.94   -10 13.5    0.0117   0.997   153.5    26.2    19.0
2007 02 12    10 30.51   -05 53.7    0.0154   1.001   156.6    23.0    19.5
2007 02 13    10 37.98   -03 14.6    0.0193   1.005   158.6    21.0    20.0
2007 02 14    10 42.89   -01 27.6    0.0232   1.009   160.0    19.5    20.3
2007 02 15    10 46.34   -00 10.6    0.0271   1.013   161.3    18.2    20.6
2007 02 16    10 48.86   +00 47.5    0.0310   1.017   162.4    17.1    20.9
2007 02 17    10 50.77   +01 33.1    0.0350   1.022   163.5    15.9    21.1
2007 02 18    10 52.26   +02 09.8    0.0390   1.026   164.6    14.8    21.3
2007 02 19    10 53.43   +02 40.2    0.0430   1.030   165.6    13.8    21.5
2007 02 20    10 54.36   +03 05.8    0.0470   1.034   166.7    12.7    21.7
2007 02 21    10 55.13   +03 27.6    0.0511   1.039   167.7    11.7    21.8
2007 02 22    10 55.75   +03 46.6    0.0552   1.043   168.8    10.6    22.0
2007 02 23    10 56.26   +04 03.1    0.0593   1.048   169.8     9.6    22.1
2007 02 24    10 56.69   +04 17.8    0.0635   1.052   170.8     8.6    22.2
2007 02 25    10 57.05   +04 30.8    0.0677   1.057   171.9     7.6    22.3
2007 02 26    10 57.35   +04 42.5    0.0719   1.061   172.9     6.6    22.4
2007 02 27    10 57.61   +04 53.0    0.0762   1.066   173.9     5.6    22.5
2007 02 28    10 57.83   +05 02.6    0.0806   1.071   175.0     4.7    22.6
2007 03 01    10 58.01   +05 11.3    0.0849   1.075   176.0     3.7    22.7

Timothy B. Spahr             (C) Copyright 2007 MPC           M.P.E.C. 2007-D14

Read MPEC 2007-D13 Read MPEC 2007-D15


Our Web policy. Index to the CBAT/MPC/ICQ pages.


Valid HTML 4.01!